SCP
0 0 0 0 0 0 0 0 -0 0 0 0 0 -0 -0 0 0 0 0 0 0 0
0 0 0 0 0 0 0 -0 0 0 0 0 0 -0 -0 0 0 0 0 0 0 0
0 0 0 0 0 0 0 0 0 0 0 0 0 0 0 0 -0 -0 -0 0 0 0
0 0 0 0 0 0 -0 0 0 0 0 0 0 0 0 0 0 -0 0 0 0 0
0 0 0 0 0 0 0 0 0 0 0 0 0 0 0 0 -0 -0 -0 0 0 -0
0 0 0 -0 0 0 0 0 0 0 0 0 0 0 0 0 0 0 0 0 0 0
0 0 0 -0 -0 -0 0 0 0 0 0 -0 0 0 0 0 0 0 0 0 0 -0
0 0 -0 -0 0 0 -0 -0 -0 0 -0 -0 0 0 0 -0 -0 0 0 0 0 -0
0 -0 -0 -0 -0 -0 -0 -0 -0 0 0 0 0 0 0 0 0 -0 0 0 0 0
-0 -0 0 0 -0 0 0 0 0 -0 0 0 0 0 0 0 0 0 0 0 0 0
0 -0 0 0 0 0 -0 0 0 -0 -0 0 0 0 -0 0 0 0 0 0 0 0
0 0 0 0 0 0 0 0 -0 -0 0 0 0 0 -0 0 0 0 0 -0 0 0
0 0 0 0 0 0 0 0 0 0 -0 0 -0 0 -0 0 0 0 0 -0 0 -0
0 0 0 0 0 0 0 0 0 0 0 0 0 0 0 0 0 0 0 0 0 0
Wind_Speed_500mb
9 5 3 5 4 4 7 12 13 11 8 6 5 9 11 13 14 14 12 12 16 15
10 8 4 1 6 6 12 13 12 10 6 6 5 5 8 11 14 12 10 10 14 11
10 6 4 6 8 12 14 17 12 7 6 5 5 2 7 11 14 10 12 14 12 12
12 7 7 8 10 11 14 15 12 8 5 4 4 3 5 8 11 13 17 17 15 12
11 8 8 10 11 13 13 14 12 10 5 4 3 2 5 9 14 18 16 14 17 17
9 10 10 14 13 15 14 14 13 11 9 5 5 8 8 15 20 17 18 26 18 13
8 11 14 16 16 15 16 15 15 15 14 12 14 17 20 23 25 23 22 20 24 25
12 14 19 19 18 18 18 17 18 20 19 16 16 18 25 23 22 27 29 30 29 25
16 19 21 23 23 20 18 19 19 20 18 18 17 21 18 23 21 23 31 30 31 36
20 23 23 23 24 22 21 20 19 18 19 17 18 12 11 14 17 19 26 34 36 45
24 26 25 23 23 22 21 19 17 18 19 19 15 12 8 9 19 26 26 34 36 40
26 28 25 22 21 22 20 15 13 12 14 19 18 13 13 23 28 32 29 33 34 34
28 28 26 22 21 21 22 18 12 15 19 22 22 22 16 28 33 35 38 41 39 45
32 29 24 22 19 21 23 23 18 25 26 26 27 29 26 23 38 40 42 43 48 49
Wind_Direction_500mb
166 182 222 294 238 229 177 156 170 157 163 138 153 156 181 195 200 206 220 223 214 217
164 160 184 84 113 148 161 171 166 156 145 107 137 165 177 194 188 184 206 198 192 191
171 150 123 113 133 144 161 164 168 159 115 125 81 106 158 172 176 192 166 193 184 219
170 158 152 153 138 146 163 168 164 164 112 93 90 150 184 197 183 183 184 197 213 204
179 168 172 156 146 156 163 161 168 157 152 117 153 194 165 172 164 170 191 182 204 200
177 176 156 149 144 152 162 161 157 154 143 151 131 114 122 130 139 144 137 148 153 158
161 152 147 143 140 148 153 150 153 145 141 127 116 110 102 111 114 118 128 129 133 130
150 141 142 141 137 141 142 145 147 144 133 124 114 113 109 106 108 127 129 124 126 119
145 144 142 137 136 136 138 141 146 140 138 127 132 114 101 107 112 123 126 128 129 129
147 150 144 142 139 141 143 140 145 147 146 142 149 135 106 108 124 125 131 137 132 136
154 152 149 149 148 150 152 156 159 154 150 149 158 147 130 144 143 143 136 129 134 132
161 161 156 151 147 152 154 153 156 157 153 151 148 135 126 141 148 146 135 137 124 128
163 160 157 153 147 151 150 146 135 138 139 145 142 131 130 149 145 148 141 136 134 131
173 169 166 157 150 150 146 145 133 124 127 138 139 127 122 137 154 154 147 142 135 132
Wind_Speed_850mb
9 5 3 5 4 4 7 12 13 11 8 6 5 9 11 13 14 14 12 12 16 15
10 8 4 1 6 6 12 13 12 10 6 6 5 5 8 11 14 12 10 10 14 11
10 6 4 6 8 12 14 17 12 7 6 5 5 2 7 11 14 10 12 14 12 12
12 7 7 8 10 11 14 15 12 8 5 4 4 3 5 8 11 13 17 17 15 12
11 8 8 10 11 13 13 14 12 10 5 4 3 2 5 9 14 18 16 14 17 17
9 10 10 14 13 15 14 14 13 11 9 5 5 8 8 15 20 17 18 26 18 13
8 11 14 16 16 15 16 15 15 15 14 12 14 17 20 23 25 23 22 20 24 25
12 14 19 19 18 18 18 17 18 20 19 16 16 18 25 23 22 27 29 30 29 25
16 19 21 23 23 20 18 19 19 20 18 18 17 21 18 23 21 23 31 30 31 36
20 23 23 23 24 22 21 20 19 18 19 17 18 12 11 14 17 19 26 34 36 45
24 26 25 23 23 22 21 19 17 18 19 19 15 12 8 9 19 26 26 34 36 40
26 28 25 22 21 22 20 15 13 12 14 19 18 13 13 23 28 32 29 33 34 34
28 28 26 22 21 21 22 18 12 15 19 22 22 22 16 28 33 35 38 41 39 45
32 29 24 22 19 21 23 23 18 25 26 26 27 29 26 23 38 40 42 43 48 49
Wind_Direction_850mb
166 182 222 294 238 229 177 156 170 157 163 138 153 156 181 195 200 206 220 223 214 217
164 160 184 84 113 148 161 171 166 156 145 107 137 165 177 194 188 184 206 198 192 191
171 150 123 113 133 144 161 164 168 159 115 125 81 106 158 172 176 192 166 193 184 219
170 158 152 153 138 146 163 168 164 164 112 93 90 150 184 197 183 183 184 197 213 204
179 168 172 156 146 156 163 161 168 157 152 117 153 194 165 172 164 170 191 182 204 200
177 176 156 149 144 152 162 161 157 154 143 151 131 114 122 130 139 144 137 148 153 158
161 152 147 143 140 148 153 150 153 145 141 127 116 110 102 111 114 118 128 129 133 130
150 141 142 141 137 141 142 145 147 144 133 124 114 113 109 106 108 127 129 124 126 119
145 144 142 137 136 136 138 141 146 140 138 127 132 114 101 107 112 123 126 128 129 129
147 150 144 142 139 141 143 140 145 147 146 142 149 135 106 108 124 125 131 137 132 136
154 152 149 149 148 150 152 156 159 154 150 149 158 147 130 144 143 143 136 129 134 132
161 161 156 151 147 152 154 153 156 157 153 151 148 135 126 141 148 146 135 137 124 128
163 160 157 153 147 151 150 146 135 138 139 145 142 131 130 149 145 148 141 136 134 131
173 169 166 157 150 150 146 145 133 124 127 138 139 127 122 137 154 154 147 142 135 132